| time (UTC) | temp C | wind direction | speed KPH | gust KPH | rain 1hr cm | rain 24hr cm | rain mn cm | humidity % | barometer mb |
| 20260901085923 | 35 | 218 | 6.4 | 11.3 | 0.00 | 0.00 | 0.00 | 71 | 1011.8 |
| 20260901084421 | 35 | 225 | 4.8 | 12.9 | 0.00 | 0.00 | 0.00 | 70 | 1011.5 |
| 20260901082918 | 35 | 225 | 14.5 | 14.5 | 0.00 | 0.00 | 0.00 | 70 | 1011.4 |
| 20260901081417 | 35 | 225 | 3.2 | 8.0 | 0.00 | 0.00 | 0.00 | 72 | 1011.4 |
| 20260901075913 | 35 | 270 | 3.2 | 14.5 | 0.00 | 0.00 | 0.00 | 71 | 1011.3 |
| 20260901074411 | 35 | 225 | 6.4 | 12.9 | 0.00 | 0.00 | 0.00 | 70 | 1011.1 |
| 20260901072908 | 35 | 225 | 6.4 | 11.3 | 0.00 | 0.00 | 0.00 | 72 | 1011.1 |
| 20260901071407 | 35 | 247 | 1.6 | 12.9 | 0.00 | 0.00 | 0.00 | 72 | 1011.0 |
| 20260901065903 | 35 | 180 | 6.4 | 12.9 | 0.00 | 0.00 | 0.00 | 72 | 1010.9 |
| 20260901064403 | 35 | 180 | 9.7 | 14.5 | 0.00 | 0.00 | 0.00 | 72 | 1010.8 |
| 20260901062858 | 35 | 225 | 6.4 | 14.5 | 0.00 | 0.00 | 0.00 | 72 | 1010.7 |
| 20260901061357 | 35 | 180 | 4.8 | 6.4 | 0.00 | 0.00 | 0.00 | 72 | 1010.8 |
| 20260901055853 | 35 | 135 | 4.8 | 6.4 | 0.00 | 0.00 | 0.00 | 72 | 1010.8 |
| 20260901054351 | 34 | 270 | 1.6 | 4.8 | 0.00 | 0.00 | 0.00 | 72 | 1010.9 |
| 20260901052848 | 34 | 270 | 1.6 | 4.8 | 0.00 | 0.00 | 0.00 | 72 | 1011.0 |
| 20260901051347 | 34 | 270 | 1.6 | 1.6 | 0.00 | 0.00 | 0.00 | 56 | 1011.0 |
| 20260901045843 | 34 | 292 | 0.0 | 4.8 | 0.00 | 0.00 | 0.00 | 72 | 1011.0 |
| 20260901044341 | 34 | 270 | 1.6 | 4.8 | 0.00 | 0.00 | 0.00 | 72 | 1011.1 |
| 20260901042838 | 34 | 270 | 4.8 | 8.0 | 0.00 | 0.00 | 0.00 | 72 | 1011.3 |
| 20260901041337 | 34 | 270 | 1.6 | 6.4 | 0.00 | 0.00 | 0.00 | 72 | 1011.3 |
| 20260901035833 | 34 | 270 | 3.2 | 4.8 | 0.00 | 0.00 | 0.00 | 72 | 1011.5 |
| 20260901034331 | 34 | 270 | 0.0 | 4.8 | 0.00 | 0.00 | 0.00 | 72 | 1011.5 |
| 20260901032828 | 34 | 0 | 1.6 | 8.0 | 0.00 | 0.00 | 0.00 | 72 | 1011.7 |
| 20260901031327 | 34 | 0 | 0.0 | 8.0 | 0.00 | 0.00 | 0.00 | 72 | 1011.8 |
| 20260901025823 | 33 | 0 | 3.2 | 6.4 | 0.00 | 0.00 | 0.00 | 72 | 1011.7 |
| 20260901024321 | 33 | 0 | 4.8 | 6.4 | 0.00 | 0.00 | 0.00 | 73 | 1011.6 |
| 20260901022818 | 33 | 0 | 0.0 | 8.0 | 0.00 | 0.00 | 0.00 | 73 | 1011.9 |
| 20260901021317 | 33 | 0 | 4.8 | 8.0 | 0.00 | 0.00 | 0.00 | 73 | 1012.1 |
| 20260901015813 | 33 | 45 | 0.0 | 9.7 | 0.00 | 0.00 | 0.00 | 73 | 1012.2 |
| 20260901014310 | 33 | 0 | 1.6 | 11.3 | 0.00 | 0.00 | 0.00 | 73 | 1012.6 |
| 20260901012808 | 33 | 90 | 4.8 | 8.0 | 0.00 | 0.00 | 0.00 | 74 | 1012.7 |
| 20260901011307 | 33 | 90 | 6.4 | 12.9 | 0.00 | 0.00 | 0.00 | 74 | 1012.7 |
| 20260901005803 | 33 | 112 | 3.2 | 8.0 | 0.00 | 0.00 | 0.00 | 74 | 1012.9 |
| 20260901004300 | 33 | 135 | 1.6 | 4.8 | 0.00 | 0.00 | 0.00 | 74 | 1012.9 |
| 20260901002758 | 33 | 135 | 3.2 | 8.0 | 0.00 | 0.00 | 0.00 | 74 | 1012.9 |
| 20260901001257 | 33 | 135 | 4.8 | 11.3 | 0.00 | 0.00 | 0.00 | 74 | 1013.0 |
| 20260831235753 | 33 | 135 | 6.4 | 6.4 | 0.00 | 0.00 | 0.00 | 75 | 1013.0 |
| 20260831234251 | 33 | 135 | 3.2 | 9.7 | 0.00 | 0.00 | 0.00 | 75 | 1012.9 |
| 20260831232748 | 33 | 135 | 3.2 | 6.4 | 0.00 | 0.00 | 0.00 | 75 | 1012.9 |
| 20260831231246 | 33 | 135 | 3.2 | 8.0 | 0.00 | 0.00 | 0.00 | 75 | 1013.0 |
| 20260831225743 | 33 | 135 | 3.2 | 6.4 | 0.00 | 0.00 | 0.00 | 75 | 1013.0 |
| 20260831224241 | 33 | 135 | 3.2 | 4.8 | 0.00 | 0.00 | 0.00 | 75 | 1013.1 |
| 20260831222738 | 33 | 135 | 0.0 | 6.4 | 0.00 | 0.00 | 0.00 | 75 | 1012.9 |
| 20260831221237 | 33 | 135 | 4.8 | 6.4 | 0.00 | 0.00 | 0.00 | 76 | 1012.9 |
| 20260831215733 | 33 | 135 | 1.6 | 8.0 | 0.00 | 0.00 | 0.00 | 76 | 1013.0 |
| 20260831214230 | 33 | 135 | 3.2 | 8.0 | 0.00 | 0.00 | 0.00 | 75 | 1013.0 |
| 20260831212728 | 33 | 135 | 1.6 | 8.0 | 0.00 | 0.00 | 0.00 | 76 | 1012.9 |
| 20260831211226 | 33 | 135 | 6.4 | 9.7 | 0.00 | 0.00 | 0.00 | 75 | 1012.9 |
| 20260831205723 | 33 | 135 | 0.0 | 6.4 | 0.00 | 0.00 | 0.00 | 76 | 1012.7 |
| 20260831204220 | 33 | 135 | 4.8 | 4.8 | 0.00 | 0.00 | 0.00 | 76 | 1012.7 |
| 20260831202718 | 33 | 135 | 0.0 | 6.4 | 0.00 | 0.00 | 0.00 | 76 | 1012.7 |
| 20260831201217 | 33 | 135 | 3.2 | 4.8 | 0.00 | 0.00 | 0.00 | 75 | 1012.7 |
| 20260831195713 | 33 | 135 | 1.6 | 6.4 | 0.00 | 0.00 | 0.00 | 76 | 1012.6 |
| 20260831194211 | 33 | 135 | 3.2 | 6.4 | 0.00 | 0.00 | 0.00 | 76 | 1012.6 |
| 20260831192708 | 33 | 135 | 3.2 | 6.4 | 0.00 | 0.00 | 0.00 | 75 | 1012.7 |
| 20260831191207 | 33 | 135 | 3.2 | 6.4 | 0.00 | 0.00 | 0.00 | 75 | 1012.8 |
| 20260831185703 | 33 | 135 | 4.8 | 6.4 | 0.00 | 0.00 | 0.00 | 76 | 1012.7 |
| 20260831184200 | 33 | 135 | 8.0 | 8.0 | 0.00 | 0.00 | 0.00 | 76 | 1012.7 |
| 20260831182658 | 33 | 157 | 6.4 | 6.4 | 0.00 | 0.00 | 0.00 | 76 | 1012.6 |
| 20260831181157 | 33 | 135 | 4.8 | 4.8 | 0.00 | 0.00 | 0.00 | 76 | 1012.6 |
| 20260831175653 | 33 | 135 | 1.6 | 3.2 | 0.00 | 0.00 | 0.00 | 76 | 1012.4 |
| 20260831174150 | 33 | 135 | 1.6 | 3.2 | 0.00 | 0.00 | 0.00 | 76 | 1012.3 |
| 20260831172648 | 33 | 135 | 1.6 | 4.8 | 0.00 | 0.00 | 0.00 | 76 | 1012.4 |
| 20260831171146 | 33 | 135 | 0.0 | 3.2 | 0.00 | 0.00 | 0.00 | 76 | 1012.6 |
| 20260831165643 | 33 | 135 | 1.6 | 3.2 | 0.00 | 0.00 | 0.00 | 76 | 1012.5 |
| 20260831164140 | 33 | 135 | 1.6 | 6.4 | 0.00 | 0.00 | 0.00 | 76 | 1012.4 |
| 20260831162638 | 33 | 135 | 0.0 | 4.8 | 0.00 | 0.00 | 0.00 | 76 | 1012.3 |
| 20260831161136 | 33 | 135 | 1.6 | 4.8 | 0.00 | 0.00 | 0.00 | 76 | 1012.3 |
| 20260831155633 | 33 | 135 | 1.6 | 4.8 | 0.00 | 0.00 | 0.00 | 76 | 1012.3 |
| 20260831154130 | 33 | 51 | 1.6 | 3.2 | 0.00 | 0.00 | 0.00 | 76 | 1012.3 |
| 20260831152628 | 33 | 45 | 0.0 | 1.6 | 0.00 | 0.00 | 0.00 | 76 | 1012.1 |
| 20260831151126 | 33 | 337 | 1.6 | 4.8 | 0.00 | 0.00 | 0.00 | 76 | 1012.2 |
| 20260831144117 | 33 | 270 | 0.0 | 3.2 | 0.00 | 0.00 | 0.00 | 77 | 1011.8 |
| 20260831142615 | 33 | 315 | 3.2 | 4.8 | 0.00 | 0.00 | 0.00 | 76 | 1011.8 |
| 20260831141113 | 33 | 315 | 3.2 | 6.4 | 0.00 | 0.00 | 0.00 | 77 | 1011.8 |
| 20260831135610 | 33 | 315 | 4.8 | 6.4 | 0.00 | 0.00 | 0.00 | 76 | 1011.7 |
| 20260831134107 | 33 | 225 | 4.8 | 6.4 | 0.00 | 0.00 | 0.00 | 76 | 1011.8 |
| 20260831132605 | 33 | 225 | 0.0 | 3.2 | 0.00 | 0.00 | 0.00 | 77 | 1011.5 |
| 20260831131104 | 33 | 225 | 0.0 | 4.8 | 0.00 | 0.00 | 0.00 | 76 | 1011.6 |
| 20260831125600 | 33 | 225 | 1.6 | 4.8 | 0.00 | 0.00 | 0.00 | 77 | 1011.5 |
| 20260831124057 | 33 | 225 | 0.0 | 4.8 | 0.00 | 0.00 | 0.00 | 77 | 1011.4 |
| 20260831122555 | 33 | 225 | 0.0 | 1.6 | 0.00 | 0.00 | 0.00 | 77 | 1011.3 |
| 20260831121053 | 33 | 225 | 0.0 | 0.0 | 0.00 | 0.00 | 0.00 | 77 | 1011.3 |
| 20260831115550 | 33 | 225 | 1.6 | 3.2 | 0.00 | 0.00 | 0.00 | 77 | 1011.3 |
| 20260831114048 | 33 | 225 | 0.0 | 4.8 | 0.00 | 0.00 | 0.00 | 76 | 1011.1 |
| 20260831112545 | 33 | 225 | 3.2 | 4.8 | 0.00 | 0.00 | 0.00 | 77 | 1011.1 |
| 20260831111043 | 33 | 225 | 1.6 | 4.8 | 0.00 | 0.00 | 0.00 | 76 | 1010.9 |
| 20260831105540 | 33 | 225 | 1.6 | 4.8 | 0.00 | 0.00 | 0.00 | 76 | 1011.0 |
| 20260831104037 | 33 | 270 | 3.2 | 8.0 | 0.00 | 0.00 | 0.00 | 76 | 1010.7 |
| 20260831102535 | 33 | 270 | 1.6 | 9.7 | 0.00 | 0.00 | 0.00 | 76 | 1010.5 |
| 20260831101033 | 33 | 270 | 3.2 | 6.4 | 0.00 | 0.00 | 0.00 | 75 | 1010.4 |
| 20260831095530 | 33 | 270 | 0.0 | 9.7 | 0.00 | 0.00 | 0.00 | 75 | 1010.4 |
| 20260831094027 | 34 | 270 | 4.8 | 9.7 | 0.00 | 0.00 | 0.00 | 74 | 1010.3 |
| 20260831092525 | 34 | 315 | 1.6 | 9.7 | 0.00 | 0.00 | 0.00 | 74 | 1010.1 |
| 20260831091023 | 34 | 225 | 8.0 | 9.7 | 0.00 | 0.00 | 0.00 | 74 | 1010.0 |